Location: Overspoor
(51.4747°N, 5.6641°E)
Time: 23:31:18
(UTC+02:00)

KKS-1 - Pass Details

Date: 26 June 2022
Orbit: 634 x 649 km, 98.2° (Epoch: 15 August)

Event Time Altitude Azimuth Distance (km) Brightness Sun altitude
Rises 23:19:13 0° 19° (NNE) 2,981 ? -9.0°
Reaches altitude 10° 23:21:32 10° 26° (NNE) 2,065 ? -9.2°
Maximum altitude 23:25:52 45° 99° (E) 891 ? -9.6°
Enters shadow 23:29:55 11° 171° (S) 1,959 ? -9.9°
